User: anonymous   Login
Location: Mason Neck State Park
(38.6428°N, 77.1981°W)
Time: 16:17:32
(UTC-04:00)
Language:

Cosmos 1400 Rocket - Orbit

View from above orbital plane
View from above orbital plane
View from above satellite
View from above satellite

Ground track
Ground track

The orbit data is extracted from the following two-line orbital elements,

1 13403U 82079B   16179.15982403 -.00000157  00000-0 -12181-4 0  9995
2 13403  81.1700 315.8724 0034126  10.2721 349.9192 15.06236291843275
Epoch (UTC): 27 June 2016 03:50:08
Eccentricity: 0.0034126
inclination: 81.1700°
perigee height: 524 km
apogee height: 571 km
right ascension of ascending node: 315.8724°
argument of perigee: 10.2721°
revolutions per day: 15.06236291
mean anomaly at epoch: 349.9192°
orbit number at epoch: 84327

The dashed part of the orbit path shows where the satellite is in the earth's shadow,  

DLR